Simultaneous Nadir Overpasses (SNOs) Predictions

Prediction of SNOs between FY3D and NOAA-19 Satellite Orbit:

Table of predicted SNOs for the next 14.0 days since TLE Epoch: 4/13/2024
Index Date (FY3D) Time (FY3D) Lat,Lon (FY3D) SZA (FY3D ) Date (NOAA-19) Time (NOAA-19) Lat,Lon (NOAA-19) SZA (NOAA-19 ) Distance(km) Time Diff (sec)
1 04/15/2024 02:06:34 75.95, 146.49 65.98 04/15/2024 02:05:22 75.96, 145.48 66.01 27.22 72
2 04/15/2024 02:57:22 -76.13, -46.81 113.85 04/15/2024 02:56:18 -76.10, -46.78 113.88 3.51 64
3 04/15/2024 03:48:08 76.09, 120.61 66.11 04/15/2024 03:47:17 76.11, 120.51 66.12 3.17 51
4 04/15/2024 04:38:53 -76.13, -72.21 113.87 04/15/2024 04:38:16 -76.11, -72.24 113.90 2.95 37
5 04/15/2024 05:29:40 76.14, 95.06 66.13 04/15/2024 05:29:15 76.12, 95.05 66.11 3.07 25
6 04/15/2024 06:20:24 -76.14, -97.60 113.89 04/15/2024 06:20:13 -76.16, -97.53 113.87 3.28 11
7 04/15/2024 07:11:11 76.15, 69.66 66.11 04/15/2024 07:11:13 76.13, 69.59 66.09 3.17 2
8 04/15/2024 08:01:55 -76.14,-123.00 113.91 04/15/2024 08:02:11 -76.17,-122.98 113.88 3.21 16
9 04/15/2024 08:52:42 76.15, 44.27 66.09 04/15/2024 08:53:10 76.18, 44.30 66.12 2.96 28
10 04/15/2024 09:43:27 -76.19,-148.55 113.89 04/15/2024 09:44:09 -76.18,-148.44 113.90 3.33 42
11 04/15/2024 10:34:13 76.16, 18.87 66.07 04/15/2024 10:35:08 76.19, 18.85 66.10 3.36 55
12 04/15/2024 11:24:58 -76.20,-173.95 113.91 04/15/2024 11:26:07 -76.19,-173.89 113.92 1.65 69
13 04/15/2024 12:15:51 76.48, -7.69 66.38 04/15/2024 12:17:00 76.46, -5.60 66.34 54.39 69



Historial Predications of SNOs between FY3D and NOAA-19
